Location: Burland Observatory
(39.4088°N, 105.4217°W)
Time: 11:27:21
(UTC-07:00)

Vanguard 3 - Pass Details

Date: 14 December 2019
Orbit: 507 x 3264 km, 33.4° (Epoch: 26 January)

Event Time Altitude Azimuth Distance (km) Brightness Sun altitude
Rises 06:58:31 0° 238° (WSW) 3,239 9.9 -3.4°
Reaches altitude 10° 07:00:36 10° 232° (SW) 2,529 9.5 -3.1°
Maximum altitude 07:06:23 47° 159° (SSE) 1,595 9.2 -2.1°
Drops below altitude 10° 07:16:25 10° 91° (E) 4,338 12.0 -0.4°
Sets 07:21:06 0° 87° (E) 5,812 12.6 0.4°
